GW4350 Weather Reports


time (UTC)temp
C
wind
direction
speed
KPH
gust
KPH
rain 1hr
cm
rain 24hr
cm
rain mn
cm
humidity
%
barometer
mb
20260505065837 15 177 1.6 3.2 0.00 0.00 0.00 71 998.6
20260505065334 15 175 1.6 3.2 0.00 0.00 0.00 72 998.8
20260505064831 15 191 1.6 1.6 0.00 0.00 0.00 72 998.7
20260505064327 15 175 3.2 3.2 0.00 0.00 0.00 72 998.7
20260505063826 15 119 1.6 3.2 0.00 0.00 0.00 72 998.9
20260505063321 15 172 3.2 3.2 0.00 0.00 0.00 71 998.7
20260505062817 15 187 1.6 3.2 0.00 0.00 0.00 71 998.8
20260505062315 15 173 3.2 3.2 0.00 0.00 0.00 71 998.9
20260505061812 15 235 3.2 4.8 0.00 0.00 0.00 71 998.9
20260505061310 15 158 3.2 3.2 0.00 0.00 0.00 71 998.9
20260505060808 15 173 1.6 3.2 0.00 0.00 0.00 71 998.7
20260505060304 15 173 3.2 3.2 0.00 0.00 0.00 70 999.0
20260505055800 15 196 1.6 3.2 0.00 0.00 0.00 70 998.8
20260505055256 15 181 1.6 1.6 0.00 0.00 0.00 69 998.8
20260505054754 15 173 3.2 3.2 0.00 0.00 0.00 69 998.7
20260505054251 15 172 1.6 3.2 0.00 0.00 0.00 69 998.8
20260505053749 15 151 3.2 3.2 0.00 0.00 0.00 68 998.9
20260505053246 15 161 1.6 1.6 0.00 0.00 0.00 68 998.9
20260505052743 15 175 3.2 3.2 0.00 0.00 0.00 67 999.0
20260505052240 15 270 1.6 3.2 0.00 0.00 0.00 67 998.9
20260505051737 15 145 0.0 1.6 0.00 0.00 0.00 66 998.9
20260505051235 15 198 3.2 3.2 0.00 0.00 0.00 66 999.2
20260505050732 15 165 1.6 1.6 0.00 0.00 0.00 65 999.0
20260505050230 15 153 3.2 3.2 0.00 0.00 0.00 65 999.0
20260505041654 16 176 3.2 4.8 0.00 0.00 0.00 59 998.7
20260505041152 16 154 3.2 3.2 0.00 0.00 0.00 58 998.7
20260505040648 16 170 3.2 4.8 0.00 0.00 0.00 58 998.6
20260505040146 16 171 3.2 3.2 0.00 0.00 0.00 57 998.8
20260505035642 16 159 1.6 1.6 0.00 0.00 0.00 57 998.7
20260505035138 16 167 4.8 4.8 0.00 0.00 0.00 56 998.7
20260505034635 16 157 1.6 1.6 0.00 0.00 0.00 56 998.8
20260505034132 16 183 3.2 3.2 0.00 0.00 0.00 56 998.6
20260505033628 16 153 1.6 1.6 0.00 0.00 0.00 56 998.9
20260505033127 16 156 3.2 3.2 0.00 0.00 0.00 55 998.8
20260505032624 16 161 0.0 1.6 0.00 0.00 0.00 54 998.7
20260505032120 16 157 0.0 1.6 0.00 0.00 0.00 53 998.7
20260505031618 17 157 4.8 8.0 0.00 0.00 0.00 53 998.9
20260505031114 17 159 6.4 11.3 0.00 0.00 0.00 53 998.9
20260505030612 17 156 1.6 1.6 0.00 0.00 0.00 52 998.8
20260505030107 17 170 1.6 3.2 0.00 0.00 0.00 52 998.8
20260505025602 17 153 1.6 3.2 0.00 0.00 0.00 52 998.8
20260505025057 17 153 1.6 1.6 0.00 0.00 0.00 52 998.7
20260505024553 17 149 3.2 4.8 0.00 0.00 0.00 52 999.1
20260505024051 17 158 1.6 3.2 0.00 0.00 0.00 53 999.1
20260505023547 17 132 4.8 8.0 0.00 0.00 0.00 52 999.0
20260505023045 17 208 4.8 4.8 0.00 0.00 0.00 52 999.1
20260505022543 17 183 1.6 3.2 0.00 0.00 0.00 52 999.3
20260505022040 17 163 1.6 1.6 0.00 0.00 0.00 52 999.3
20260505021536 17 180 3.2 3.2 0.00 0.00 0.00 51 999.2
20260505021032 17 147 1.6 1.6 0.00 0.00 0.00 51 999.1
20260505020526 18 137 3.2 3.2 0.00 0.00 0.00 50 999.0
20260505020024 18 179 3.2 3.2 0.00 0.00 0.00 49 999.2
20260505015520 18 159 1.6 1.6 0.00 0.00 0.00 49 998.9
20260505015017 18 197 3.2 3.2 0.00 0.00 0.00 49 999.0
20260505014514 18 182 3.2 3.2 0.00 0.00 0.00 48 999.1
20260505014012 18 176 3.2 3.2 0.00 0.00 0.00 49 998.8
20260505013508 18 221 4.8 8.0 0.00 0.00 0.00 48 998.9
20260505013006 18 163 1.6 3.2 0.00 0.00 0.00 48 999.1
20260505012504 18 190 4.8 4.8 0.00 0.00 0.00 48 998.8
20260505012000 18 182 3.2 3.2 0.00 0.00 0.00 48 999.1
20260505011456 18 182 3.2 4.8 0.00 0.00 0.00 48 998.8
20260505010953 18 195 3.2 3.2 0.00 0.00 0.00 47 998.8
20260505010449 18 152 3.2 3.2 0.00 0.00 0.00 47 998.7
20260505005945 18 134 1.6 3.2 0.00 0.00 0.00 47 998.6
20260505005442 18 162 1.6 3.2 0.00 0.00 0.00 47 998.7
20260505004940 18 181 3.2 3.2 0.00 0.00 0.00 47 998.5
20260505004436 18 179 1.6 1.6 0.00 0.00 0.00 46 998.6
20260505003933 18 181 3.2 3.2 0.00 0.00 0.00 46 998.5
20260505003430 18 172 1.6 1.6 0.00 0.00 0.00 46 998.6
20260505002926 18 141 4.8 4.8 0.00 0.00 0.00 45 998.3
20260505002423 18 174 0.0 0.0 0.00 0.00 0.00 46 998.3
20260505001921 19 161 0.0 0.0 0.00 0.00 0.00 45 998.5
20260505001419 19 166 1.6 1.6 0.00 0.00 0.00 45 998.4
20260505000915 19 164 0.0 0.0 0.00 0.00 0.00 45 998.4
20260505000408 19 162 1.6 1.6 0.00 0.00 0.00 44 998.5
20260504235904 20 167 1.6 3.2 0.00 0.00 0.00 44 998.7
20260504235401 20 176 1.6 3.2 0.00 0.00 0.00 43 998.1
20260504234857 20 153 0.0 1.6 0.00 0.00 0.00 43 998.1
20260504234355 20 174 3.2 3.2 0.00 0.00 0.00 43 998.3
20260504233851 20 162 1.6 1.6 0.00 0.00 0.00 43 997.9
20260504233347 20 182 3.2 3.2 0.00 0.00 0.00 42 998.1
20260504232844 20 185 3.2 3.2 0.00 0.00 0.00 41 998.4
20260504232341 20 171 3.2 4.8 0.00 0.00 0.00 41 998.1
20260504231838 20 163 1.6 1.6 0.00 0.00 0.00 41 998.0
20260504231335 21 181 4.8 4.8 0.00 0.00 0.00 40 998.2
20260504230831 21 101 3.2 4.8 0.00 0.00 0.00 41 998.3
20260504230329 21 195 1.6 1.6 0.00 0.00 0.00 39 998.1
20260504225827 21 198 4.8 11.3 0.00 0.00 0.00 39 998.2
20260504225323 21 185 3.2 4.8 0.00 0.00 0.00 39 998.2
20260504224821 21 168 0.0 0.0 0.00 0.00 0.00 39 998.2
20260504224318 21 149 1.6 1.6 0.00 0.00 0.00 39 998.2
20260504223814 21 202 6.4 8.0 0.00 0.00 0.00 39 998.1
20260504223310 21 204 3.2 4.8 0.00 0.00 0.00 39 998.1
20260504222807 21 177 4.8 4.8 0.00 0.00 0.00 38 998.2
20260504222305 21 193 1.6 3.2 0.00 0.00 0.00 38 998.2
20260504221802 21 166 3.2 3.2 0.00 0.00 0.00 38 998.1
20260504221258 21 201 4.8 8.0 0.00 0.00 0.00 38 998.3
20260504220755 22 230 4.8 4.8 0.00 0.00 0.00 37 998.1
20260504220252 22 187 6.4 8.0 0.00 0.00 0.00 37 998.1
20260504215749 22 208 8.0 11.3 0.00 0.00 0.00 37 998.3
20260504215246 22 220 8.0 9.7 0.00 0.00 0.00 37 998.3
20260504214742 22 193 3.2 3.2 0.00 0.00 0.00 37 998.4
20260504214239 22 167 4.8 4.8 0.00 0.00 0.00 36 998.5
20260504213735 22 174 4.8 4.8 0.00 0.00 0.00 37 998.3
20260504213231 22 183 4.8 4.8 0.00 0.00 0.00 36 998.3
20260504212729 21 169 4.8 8.0 0.00 0.00 0.00 38 998.4
20260504212225 21 163 3.2 4.8 0.00 0.00 0.00 38 998.2
20260504211723 22 196 4.8 4.8 0.00 0.00 0.00 38 998.2
20260504211219 22 165 1.6 3.2 0.00 0.00 0.00 38 998.2
20260504210717 22 248 6.4 9.7 0.00 0.00 0.00 37 998.3
20260504210213 21 193 3.2 3.2 0.00 0.00 0.00 39 998.2
20260504205710 21 158 3.2 3.2 0.00 0.00 0.00 39 998.4
20260504205207 21 179 4.8 4.8 0.00 0.00 0.00 39 998.2
20260504204706 21 154 3.2 3.2 0.00 0.00 0.00 38 998.2
20260504204204 21 224 6.4 9.7 0.00 0.00 0.00 38 998.5
20260504203702 21 191 1.6 3.2 0.00 0.00 0.00 38 998.4
20260504203200 21 145 8.0 11.3 0.00 0.00 0.00 37 998.5
20260504202654 21 182 8.0 9.7 0.00 0.00 0.00 38 998.6
20260504202152 21 199 8.0 11.3 0.00 0.00 0.00 37 998.7
20260504201648 21 211 6.4 8.0 0.00 0.00 0.00 37 998.6
20260504201146 21 242 6.4 9.7 0.00 0.00 0.00 38 998.8
20260504200643 21 179 8.0 11.3 0.00 0.00 0.00 40 998.7
20260504200139 21 192 8.0 11.3 0.00 0.00 0.00 37 998.8
20260504195635 21 168 8.0 9.7 0.00 0.00 0.00 37 998.7
20260504195132 21 209 6.4 8.0 0.00 0.00 0.00 38 998.8
20260504194629 21 171 9.7 12.9 0.00 0.00 0.00 37 998.8
20260504194125 21 209 4.8 4.8 0.00 0.00 0.00 37 999.0
20260504193621 21 170 1.6 3.2 0.00 0.00 0.00 37 998.9
20260504193120 21 205 6.4 9.7 0.00 0.00 0.00 37 998.9
20260504192617 21 222 3.2 4.8 0.00 0.00 0.00 38 998.8
20260504192115 21 163 6.4 8.0 0.00 0.00 0.00 38 999.0
20260504191613 21 183 4.8 8.0 0.00 0.00 0.00 38 998.9
20260504191109 21 218 6.4 8.0 0.00 0.00 0.00 37 999.0
20260504190605 21 230 3.2 4.8 0.00 0.00 0.00 38 999.1
20260504185559 21 149 1.6 3.2 0.00 0.00 0.00 39 999.2
20260504185055 21 203 4.8 4.8 0.00 0.00 0.00 37 999.3
20260504184551 21 194 8.0 11.3 0.00 0.00 0.00 37 999.7
20260504184046 21 182 6.4 8.0 0.00 0.00 0.00 37 999.8
20260504183543 21 195 8.0 11.3 0.00 0.00 0.00 37 999.5
20260504183042 21 282 6.4 8.0 0.00 0.00 0.00 37 999.6
20260504182538 21 176 1.6 3.2 0.00 0.00 0.00 39 999.5
20260504182036 21 195 6.4 8.0 0.00 0.00 0.00 37 1000.1
20260504181532 20 213 9.7 12.9 0.00 0.00 0.00 38 999.9
20260504181031 21 208 11.3 14.5 0.00 0.00 0.00 38 1000.0
20260504180529 21 103 1.6 1.6 0.00 0.00 0.00 38 1000.0
20260504180028 20 169 4.8 8.0 0.00 0.00 0.00 40 1000.1
20260504175525 21 140 9.7 11.3 0.00 0.00 0.00 39 1000.2
20260504175022 20 159 1.6 3.2 0.00 0.00 0.00 40 1000.0
20260504174520 20 202 12.9 17.7 0.00 0.00 0.00 37 1000.2
20260504174016 20 199 4.8 8.0 0.00 0.00 0.00 38 1000.5
20260504173513 20 210 3.2 4.8 0.00 0.00 0.00 37 1000.6
20260504173011 20 238 12.9 14.5 0.00 0.00 0.00 38 1000.3
20260504172507 20 126 4.8 4.8 0.00 0.00 0.00 40 1000.5
20260504172003 20 181 4.8 4.8 0.00 0.00 0.00 41 1000.4
20260504171500 20 239 11.3 16.1 0.00 0.00 0.00 38 1000.6
20260504170957 20 201 8.0 11.3 0.00 0.00 0.00 36 1000.7
20260504170453 20 152 4.8 4.8 0.00 0.00 0.00 38 1001.0
20260504160413 19 175 8.0 12.9 0.00 0.00 0.00 39 1001.7
20260504150837 18 176 4.8 8.0 0.00 0.00 0.00 42 1002.4
20260504150333 17 281 6.4 14.5 0.00 0.00 0.00 40 1002.3
20260504141303 16 121 8.0 9.7 0.00 0.00 0.00 54 1002.2
20260504140800 16 153 1.6 3.2 0.00 0.00 0.00 58 1002.2
20260504140255 16 183 6.4 8.0 0.00 0.00 0.00 56 1002.3
20260504130724 13 121 3.2 3.2 0.00 0.00 0.00 65 1002.6
20260504130220 14 140 3.2 3.2 0.00 0.00 0.00 65 1002.8
20260504120144 10 130 3.2 3.2 0.00 0.00 0.00 77 1003.0
20260504110612 7 157 0.0 0.0 0.00 0.00 0.00 81 1003.2
20260504110108 7 169 0.0 0.0 0.00 0.00 0.00 81 1003.2
20260504100534 6 178 0.0 0.0 0.00 0.00 0.00 80 1003.2
20260504081927 6 160 0.0 0.0 0.00 0.00 0.00 69 1002.9
20260504081424 6 162 0.0 0.0 0.00 0.00 0.00 69 1003.0
20260504080920 7 162 0.0 0.0 0.00 0.00 0.00 68 1003.0
20260504080417 7 162 0.0 0.0 0.00 0.00 0.00 67 1003.1
20260504070344 7 159 0.0 0.0 0.00 0.00 0.00 60 1003.0